Location: Unspecified
(0.0000°N, 0.0000°E)
Time: 23:54:21
(UTC+02:00)

Delta 168 - Visible Passes

Search period start: 30 September 2014 00:00
Search period end: 10 October 2014 00:00
Orbit: 395 x 2115 km, 25.3° (Epoch: 29 September)

Date Brightness Start Highest point End Pass type
(mag) Time Alt. Az. Time Alt. Az. Time Alt. Az.
30 Sep 7.0 03:40:23 19° E 03:40:23 19° E 03:42:37 10° E visible
30 Sep 5.1 05:30:56 71° WSW 05:32:05 77° SSW 05:41:20 10° ESE visible
30 Sep 5.8 07:22:31 10° W 07:31:11 29° SSW 07:37:32 10° SSE visible
30 Sep 6.7 21:19:30 10° NNW 21:23:19 14° N 21:27:45 10° NNE visible
30 Sep 7.1 23:18:40 10° NNW 23:19:08 11° NNW 23:19:08 11° NNW visible
01 Oct 7.0 03:37:30 19° E 03:37:30 19° E 03:39:42 10° ESE visible
01 Oct 5.2 05:28:03 67° SW 05:28:43 68° SSW 05:38:15 10° SE visible
01 Oct 6.0 07:19:36 10° W 07:28:02 26° SSW 07:34:22 10° SSE visible
01 Oct 6.7 21:17:44 10° NNW 21:20:35 12° N 21:23:47 10° NNE visible
01 Oct 7.1 23:15:46 10° NNW 23:15:50 10° NNW 23:15:50 10° NNW visible
02 Oct 7.1 03:34:33 18° ESE 03:34:33 18° ESE 03:36:40 10° ESE visible
02 Oct 5.3 05:25:05 60° SSW 05:25:19 60° SSW 05:35:04 10° SE visible
02 Oct 6.1 07:16:44 10° WSW 07:24:52 24° SSW 07:31:10 10° SSE visible
02 Oct 6.7 21:16:17 10° N 21:17:51 11° N 21:19:31 10° NNE visible
03 Oct 7.1 03:31:29 18° ESE 03:31:29 18° ESE 03:33:32 10° ESE visible
03 Oct 5.5 05:22:02 53° SSW 05:22:02 53° SSW 05:31:50 10° SE visible
03 Oct 6.3 07:13:55 10° WSW 07:21:44 21° SSW 07:27:56 10° SSE visible
04 Oct 7.1 03:28:21 18° ESE 03:28:21 18° ESE 03:30:18 10° ESE visible
04 Oct 5.7 05:18:52 47° SSW 05:18:52 47° SSW 05:28:31 10° SE visible
04 Oct 6.4 07:11:07 10° WSW 07:18:36 20° SSW 07:24:41 10° SSE visible
05 Oct 7.2 03:25:06 17° ESE 03:25:06 17° ESE 03:26:58 10° ESE visible
05 Oct 5.9 05:15:37 42° SSW 05:15:37 42° SSW 05:25:08 10° SE visible
05 Oct 6.6 07:08:19 10° WSW 07:15:30 18° SSW 07:21:27 10° SSE visible
06 Oct 7.2 03:21:47 16° ESE 03:21:47 16° ESE 03:23:32 10° ESE visible
06 Oct 6.1 05:12:17 38° SSW 05:12:17 38° SSW 05:21:42 10° SE visible
06 Oct 6.7 07:05:31 10° SW 07:12:24 17° SSW 07:18:14 10° SSE visible
07 Oct 7.3 03:18:22 16° SE 03:18:22 16° SE 03:20:01 10° SE visible
07 Oct 6.2 05:08:53 34° SSW 05:08:53 34° SSW 05:18:13 10° SE visible
07 Oct 6.8 07:02:39 10° SW 07:09:20 17° SSW 07:15:04 10° SSE visible
08 Oct 7.3 03:14:53 15° SE 03:14:53 15° SE 03:16:25 10° SE visible
08 Oct 6.4 05:05:23 31° SSW 05:05:23 31° SSW 05:14:42 10° SE visible
08 Oct 6.9 06:59:42 10° SW 07:06:17 16° SSW 07:11:58 10° SSE visible
09 Oct 7.4 03:11:20 14° SE 03:11:20 14° SE 03:12:44 10° SE visible
09 Oct 6.5 05:01:50 29° SSW 05:01:50 29° SSW 05:11:09 10° SE visible
09 Oct 6.9 06:56:39 10° SW 07:03:13 16° S 07:08:57 10° SSE visible
